www.pogodaiklimat.ru

Погода и климат >> Архив погоды >> Канада >> Windsor


ПОГОДА в Windsor

  • Прогноз погоды в Windsor
  • Монитор погоды в Windsor
  • Климат города

АРХИВ ПОГОДЫ в Windsor

Время (UTC), дата Ветер
(напр.,м/с)
 
Видим.   Явления Облачность Т
(С)
Тd
(С)
f
(%)
Тe
(С)
Тes
(С)
Комфортность P
(гПа)
Po
(гПа)
Тmin
(С)
Tmax
(С)
R
(мм)
R24
(мм)
S
(см)
00 14.09 С 1 12 км 10/10 300 м
[Sc]
+21.6 +20.5 93 +27 +27 душно 1020.7 998.1 +14.6 +23.4
03 14.09 СЗ 1 8000 м ясно +18.1 +17.8 98 +19 +19 1021.0 998.4
06 14.09 С 2 4800 м туман на расстоянии ясно +17.9 +17.8 99 +18 +18 1020.4 997.8 +14.6 +23.4
09 14.09 С 2 4800 м ясно +18.0 +17.8 99 +19 +19 1020.2 997.7
12 14.09 С 1 4800 м дымка 10 баллов +18.8 +18.6 99 +21 +21 комфорт 1021.4 998.8 +15.7 +23.4
15 14.09 С 2 11 км 9/9 600 м
[]
+23.4 +20.9 86 +31 +32 очень
душно
1021.2 998.7
18 14.09 СВ 3 16 км 8/8 1000 м
[Cu hum]
+26.7 +20.9 71 +34 +36 очень
душно
1020.4 997.9 +15.7 +27.1
21 14.09 В 2 9000 м 5/5 600 м
[]
+27.2 +20.7 68 +34 +36 очень
душно
1019.5 997.1
00 15.09 ЮВ 2 9000 м мгла ясно +22.0 +19.7 87 +28 +28 душно 1019.6 997.1 +15.7 +27.8
03 15.09 С 1 9000 м ясно +19.3 +18.9 98 +23 +23 комфорт 1020.5 998.0
12 15.09 СВ 3 800 м туман 1/1 100 м
[St]
+19.9 +19.7 99 +23 +24 комфорт 1021.5 999.0
15 15.09 СВ 2 9000 м 10/10 100 м
[]
+22.0 +21.1 95 +28 +28 душно 1022.2 999.6
18 15.09 В 4 24 км 3/3 1000 м
[Cu med, cong]
+28.0 +22.3 71 +37 +42 очень
душно
1021.5 999.1
21 15.09 ЮВ 3 19 км 3/3 1000 м
[]
+28.9 +21.2 63 +36 +39 очень
душно
1020.4 998.0
00 16.09 В 2 19 км ясно +22.7 +20.8 89 +30 +30 очень
душно
1020.4 997.9 +29.4
03 16.09 СВ 4 19 км ясно +21.2 +20.1 93 +26 +26 душно 1021.7 999.2
12 16.09 СВ 2 8000 м ясно +20.1 +19.6 97 +24 +24 комфорт 1021.9 999.4
15 16.09 В 3 19 км ясно +25.8 +21.3 76 +33 +39 очень
душно
1021.9 999.4
18 16.09 ЮВ 5 24 км 1/1 1000 м
[Cu med, cong Ci fib]
+28.9 +19.1 55 +34 +41 очень
душно
1020.6 998.2
21 16.09 В 5 19 км 1/1 1000 м
[]
+28.7 +18.6 54 +34 +36 очень
душно
1018.5 996.1
00 17.09 ЮВ 3 19 км 3/0
[Ci sp]
+21.8 +19.4 86 +27 +27 душно 1018.1 995.6 +29.5
03 17.09 В 2 19 км ясно +19.6 +18.6 94 +23 +23 комфорт 1017.9 995.5
06 17.09 В 2 24 км местами туман поземный ясно +18.0 +17.6 98 +19 +19 1016.7 994.4 19
09 17.09 ЮВ 3 19 км ясно +17.2 +17.0 99 +17 +17 1015.5 993.2
12 17.09 ЮВ 2 12 км 9/0
[Ac As Ci fib]
+17.7 +17.6 99 +18 +18 1015.5 993.0 +16.3
15 17.09 В 2 24 км 8/0
[]
+24.2 +20.2 78 +30 +35 очень
душно
1015.0 992.6
18 17.09 СВ 4 24 км 8/1 600 м
[Cu med, cong Ac trans Ci fib]
+26.8 +19.6 65 +33 +37 очень
душно
1013.2 990.9 +16.3 +27.5
21 17.09 ЮВ 2 24 км 4/4 1000 м
[]
+27.6 +19.6 62 +33 +36 очень
душно
1011.4 989.1
00 18.09 Ю 3 24 км 3/1 1000 м
[Cu med, cong Ci sp]
+22.3 +20.4 89 +29 +29 очень
душно
1011.8 989.4 +16.3 +28.5
03 18.09 Ю 2 24 км ясно +20.0 +19.5 97 +24 +24 комфорт 1012.2 989.9
06 18.09 ЮЗ 2 11 км 3/3 1500 м
[Sc]
+19.7 +19.4 98 +23 +23 комфорт 1012.4 990.1 +16.3 +28.5
09 18.09 ЮЗ 3 16 км ясно +18.9 +18.7 99 +21 +21 комфорт 1011.7 989.5
12 18.09 С 1 12 км ясно +19.9 +19.0 95 +24 +24 комфорт 1012.9 990.6 +17.7 +28.5
15 18.09 С 2 16 км ясно +24.8 +20.2 76 +31 +39 очень
душно
1013.5 991.2
18 18.09 З 4 24 км ясно +30.3 +18.7 50 +35 +43 очень
душно
1011.9 989.7 +17.7 +30.6
21 18.09 В 3 16 км гроза 9/9 1500 м
[]
+24.5 +20.5 78 +30 +31 очень
душно
1011.9 989.6
00 19.09 СВ 4 16 км {осадки} 9/0
[]
+22.0 +18.6 81 +27 +27 душно 1013.1 990.7 0.8
03 19.09 СВ 4 16 км 10/10 300 м
[]
+19.2 +17.7 91 +21 +21 комфорт 1014.2 991.8
06 19.09 СВ 3 14 км 10/10 200 м
[]
+18.5 +17.6 94 +20 +20 1015.0 992.7 2
09 19.09 С 2 8000 м дымка {осадки} 9/9 300 м
[]
+17.4 +16.3 93 +18 +18 1015.6 993.2
12 19.09 С 3 16 км 10/10 300 м
[]
+18.2 +15.7 85 +19 +19 1018.0 995.5 +17.1 0.3
15 19.09 В 4 16 км 9/9 300 м
[]
+20.1 +15.2 73 +23 +23 комфорт 1018.6 996.1
18 19.09 С 3 16 км 9/9 600 м
[]
+21.6 +15.2 67 +25 +26 комфорт 1018.6 996.1 +17.1 +22.5
21 19.09 СВ 3 16 км ясно +22.6 +15.2 63 +26 +30 жарко 1017.9 995.4
00 20.09 В 2 <100 м мгла 9/0
[]
+19.1 +15.8 81 +21 +21 комфорт 1018.8 996.2 +17.1 +23.0
03 20.09 В 1 16 км ясно +16.0 +14.4 90 +17 +17 1019.0 996.4
06 20.09 СВ 2 16 км 3/0
[]
+15.4 +13.5 88 +15 +15 1018.5 995.9 +14.9 +23.0
09 20.09 В 1 16 км 5/0
[]
+15.4 +14.1 92 +16 +16 1018.5 995.9
12 20.09 В 2 1600 м зарница 10/10 1000 м
[]
+17.0 +16.5 97 +17 +17 1019.1 996.5 +14.5 +23.0 5
15 20.09 В 2 4800 м дождь {осадки} 10/10 200 м
[]
+18.4 +18.1 98 +20 +20 1020.2 997.5
18 20.09 ЮВ 2 16 км {осадки} 9/9 200 м
[]
+21.3 +19.9 92 +26 +28 душно 1018.4 995.8 +14.5 +21.3 45

 

Местоположение метеостанции Windsor (Канада): широта 42.27 долгота -82.96 высота над уровнем моря 190 м.

В архиве по умолчанию представлена погода в Windsor за последнюю неделю. Архивные данные за месяц целиком и за предыдущие месяцы, начиная с января 2011 года, Вы можете получить, выбрав интересующий диапазон дат из раскрывающегося списка и нажав кнопку "Ввод!".


*Определитесь, кто Вы:
робот инопланетянин человек

Внимание! Время в таблицах - всемирное. Для получения местного времени необходимо прибавить поправку, которая в Windsor равна -5 ч.

Смотрите также архив погоды в соседних городах и на ближайших метеорологических станциях:

Погода в Harrow On (Канада) (27 км)
Погода в Point Pelee (Канада) (51 км)
Погода в Southeast Shoal (Канада) (64 км)
Погода в Erieau (Канада) (87 км)
Погода в Ridgetown Rcs (Канада) (91 км)
Погода в Sarnia Airport (Канада) (97 км)
Погода в Sarnia Climate (Канада) (98 км)
Погода в London Cs (Канада) (170 км)
Погода в London (Канада) (170 км)
Погода в Goderich (Канада) (195 км)

Пояснения к столбцам:

Ветер - указаны скорость ветра в м/с - средняя за 10 мин, порывы в срок и между сроками (в фигурных скобках) и направление, откуда дует ветер: С - северный, СВ - северо-восточный, В - восточный, ЮВ - юго-восточный, Ю - южный, ЮЗ - юго-западный, З - западный, СЗ - северо-западный.
Видимость - горизонтальная дальность видимости в метрах или километрах. При видимости от 1 до 10 км при отсутствии осадков обычно наблюдается дымка, при ухудшении видимости до 1 км и менее - туман. В сухую погоду видимость может ухудшаться дымом, пылью или мглою.
Явления - указаны атмосферные явления, наблюдавшиеся в срок или в последний час перед сроком; фигурными скобками обозначены явления, наблюдавшиеся между сроками (за 1-3 часа до срока); квадратными скобками обозначены град или гололедные отложения с указанием их диаметра в мм.
Облачность - указаны через наклонную черту общая и нижняя облачность в баллах и высота нижней границы облаков в метрах; квадратными скобками обозначены формы облаков: Ci - перистые, Cs - перисто-слоистые, Cc - перисто-кучевые, Ac - высококучевые, As - высокослоистые, Sc - слоисто-кучевые, Ns - слоисто-дождевые, Cu - кучевые, Cb - кучево-дождевые. Подробнее классификацию облаков см. в Атласе облаков (PDF).
T - Температура воздуха - температура, измеренная на высоте 2 м над землей.
Td - Температура точки росы - температура, при понижении до которой содержащийся в воздухе водяной пар достигнет насыщения.
f - Относительная влажность воздуха - влажноcть воздуха, измеренная на высоте 2 м над землей.
Te - Эффективная температура - температура, которую ощущает одетый по сезону человек в тени. Характеристика душности погоды. При расчете учитывается влияние влажности воздуха и скорости ветра на теплоощущения человека.
Tes - Эффективная температура на солнце - температура, которую ощущает человек, с поправкой на солнечный нагрев. Характеристика знойности погоды. Зависит от высоты солнца над горизонтом, облачности и скорости ветра. Ночью, в пасмурную погоду, а также при ветре 12 м/с и более поправка равна нулю.
P - Атмосферное давление - приведенное к уровню моря атмосферное давление.
Po - Атмосферное давление - измеренное на уровне метеостанции атмосферное давление.
Tmin - Минимальная температура - минимум температуры воздуха на высоте 2 м над землей.
Tmax - Максимальная температура - максимум температуры воздуха на высоте 2 м над землей.
R - Количество осадков - Количество выпавших осадков за период времени, мм. При наведении курсора мыши на число - период времени, за который выпало указанное количество осадков.
R24 - Количество осадков - Количество выпавших осадков за 24 часа, мм.
S - Снежный покров - Высота снежного покрова, см. При наведении курсора мыши на число - состояние снежного покрова и степень покрытия местности в баллах.